DW9417 Weather Reports


time (UTC)temp
C
wind
direction
speed
KPH
gust
KPH
rain 1hr
cm
rain 24hr
cm
rain mn
cm
humidity
%
barometer
mb
20260509013058 15 36 11.3 22.5 0.00 0.00 0.00 56 1029.1
20260509011555 14 21 9.7 24.1 0.00 0.00 0.00 58 1029.2
20260509010047 13 108 14.5 22.5 0.00 0.00 0.00 59 1029.4
20260509004555 13 44 11.3 20.9 0.00 0.00 0.00 60 1029.6
20260509003050 12 11 11.3 20.9 0.00 0.00 0.00 63 1029.6
20260509001535 11 46 6.4 17.7 0.00 0.00 0.00 66 1029.5
20260509000034 11 40 8.0 19.3 0.00 0.00 0.00 67 1029.5
20260508234532 10 38 8.0 16.1 0.00 0.00 0.00 68 1029.3
20260508233031 10 62 6.4 14.5 0.00 0.00 0.00 69 1029.2
20260508231529 9 78 6.4 9.7 0.00 0.00 0.00 71 1029.2
20260508230027 9 29 4.8 12.9 0.00 0.00 0.00 71 1029.2
20260508224528 9 349 4.8 9.7 0.00 0.00 0.00 71 1029.1
20260508223040 8 56 1.6 6.4 0.00 0.00 0.00 71 1029.0
20260508221522 9 51 1.6 6.4 0.00 0.00 0.00 70 1028.9
20260508220019 9 59 1.6 4.8 0.00 0.00 0.00 70 1028.8
20260508214518 9 59 0.0 4.8 0.00 0.00 0.00 69 1029.0
20260508213022 10 46 3.2 8.0 0.00 0.00 0.00 69 1028.8
20260508211516 10 53 3.2 6.4 0.00 0.00 0.00 68 1028.8
20260508210018 10 55 3.2 9.7 0.00 0.00 0.00 68 1028.6
20260508204511 10 53 6.4 9.7 0.00 0.00 0.00 68 1028.6
20260508203009 10 82 4.8 9.7 0.00 0.00 0.00 69 1028.5
20260508201507 10 63 3.2 9.7 0.00 0.00 0.00 68 1028.4
20260508200009 10 127 3.2 8.0 0.00 0.00 0.00 67 1028.4
20260508194502 10 50 4.8 9.7 0.00 0.00 0.00 66 1028.3
20260508193001 11 40 3.2 6.4 0.00 0.00 0.00 64 1028.5
20260508191601 11 39 4.8 8.0 0.00 0.00 0.00 64 1028.5
20260508190100 11 21 3.2 8.0 0.00 0.00 0.00 63 1028.4
20260508184601 11 74 0.0 6.4 0.00 0.00 0.00 63 1028.6
20260508183057 11 77 3.2 9.7 0.00 0.00 0.00 63 1028.4
20260508181558 11 89 3.2 9.7 0.00 0.00 0.00 63 1028.3
20260508180054 11 63 1.6 6.4 0.00 0.00 0.00 65 1028.4
20260508174558 10 65 0.0 0.0 0.00 0.00 0.00 65 1028.3
20260508173051 11 65 0.0 4.8 0.00 0.00 0.00 64 1028.3
20260508171549 11 86 4.8 9.7 0.00 0.00 0.00 64 1028.2
20260508170047 11 82 8.0 12.9 0.00 0.00 0.00 63 1028.1
20260508164551 11 88 4.8 9.7 0.00 0.00 0.00 63 1028.2
20260508163043 11 89 4.8 11.3 0.00 0.00 0.00 62 1028.2
20260508161541 11 51 3.2 8.0 0.00 0.00 0.00 61 1028.2
20260508160037 11 57 1.6 8.0 0.00 0.00 0.00 63 1028.2
20260508154541 11 80 0.0 6.4 0.00 0.00 0.00 62 1028.2
20260508153040 11 72 4.8 6.4 0.00 0.00 0.00 62 1028.2
20260508151534 11 83 1.6 6.4 0.00 0.00 0.00 60 1028.3
20260508150051 12 38 0.0 0.0 0.00 0.00 0.00 59 1028.4
20260508144534 12 38 0.0 3.2 0.00 0.00 0.00 58 1028.3
20260508143047 13 38 0.0 4.8 0.00 0.00 0.00 56 1028.3
20260508141533 13 58 4.8 11.3 0.00 0.00 0.00 55 1028.3
20260508140031 13 76 4.8 14.5 0.00 0.00 0.00 55 1028.3
20260508134531 12 86 4.8 9.7 0.00 0.00 0.00 58 1028.2
20260508133032 11 86 1.6 4.8 0.00 0.00 0.00 59 1028.2
20260508131530 12 86 3.2 6.4 0.00 0.00 0.00 57 1028.2
20260508130030 12 86 4.8 9.7 0.00 0.00 0.00 58 1028.2
20260508124532 11 86 1.6 4.8 0.00 0.00 0.00 62 1028.1
20260508123033 11 85 0.0 0.0 0.00 0.00 0.00 62 1027.9
20260508121529 11 82 0.0 0.0 0.00 0.00 0.00 61 1027.8
20260508120029 12 83 0.0 0.0 0.00 0.00 0.00 61 1027.7
20260508114532 12 82 0.0 0.0 0.00 0.00 0.00 61 1027.6
20260508113027 13 82 0.0 0.0 0.00 0.00 0.00 59 1027.6
20260508111527 13 86 0.0 0.0 0.00 0.00 0.00 56 1027.5
20260508110027 15 86 0.0 0.0 0.00 0.00 0.00 54 1027.5
20260508104526 15 86 1.6 6.4 0.00 0.00 0.00 52 1027.5
20260508103026 16 96 3.2 6.4 0.00 0.00 0.00 51 1027.4
20260508101525 16 80 6.4 9.7 0.00 0.00 0.00 50 1027.3
20260508100027 17 86 3.2 6.4 0.00 0.00 0.00 49 1027.2
20260508094523 17 80 4.8 9.7 0.00 0.00 0.00 47 1027.0
20260508093026 18 86 4.8 12.9 0.00 0.00 0.00 45 1026.9
20260508091522 19 101 11.3 16.1 0.00 0.00 0.00 44 1026.9
20260508090024 19 116 11.3 19.3 0.00 0.00 0.00 44 1026.8
20260508084521 20 11 12.9 19.3 0.00 0.00 0.00 43 1026.9
20260508083020 20 82 11.3 19.3 0.00 0.00 0.00 43 1026.8
20260508081525 20 77 11.3 20.9 0.00 0.00 0.00 42 1026.7
20260508080030 20 86 14.5 22.5 0.00 0.00 0.00 42 1026.8
20260508074519 20 117 14.5 20.9 0.00 0.00 0.00 42 1026.8
20260508073018 21 28 8.0 19.3 0.00 0.00 0.00 42 1026.8
20260508071517 21 111 11.3 22.5 0.00 0.00 0.00 42 1026.8
20260508070021 21 98 14.5 20.9 0.00 0.00 0.00 43 1026.8
20260508064529 21 97 12.9 17.7 0.00 0.00 0.00 43 1027.0
20260508063010 21 38 8.0 22.5 0.00 0.00 0.00 43 1027.0
20260508061512 21 105 17.7 24.1 0.00 0.00 0.00 43 1027.1
20260508060007 20 92 1.6 24.1 0.00 0.00 0.00 44 1027.1
20260508054504 21 54 9.7 20.9 0.00 0.00 0.00 44 1027.4
20260508053106 21 360 8.0 24.1 0.00 0.00 0.00 45 1027.5
20260508051617 21 31 9.7 16.1 0.00 0.00 0.00 45 1027.8
20260508050113 20 63 3.2 20.9 0.00 0.00 0.00 46 1028.0
20260508044557 20 30 8.0 19.3 0.00 0.00 0.00 46 1028.3
20260508043054 20 42 6.4 19.3 0.00 0.00 0.00 47 1028.5
20260508041555 20 55 1.6 22.5 0.00 0.00 0.00 48 1028.7
20260508040054 19 41 9.7 25.7 0.00 0.00 0.00 51 1029.1
20260508034546 19 74 11.3 20.9 0.00 0.00 0.00 53 1029.4
20260508033044 19 40 9.7 24.1 0.00 0.00 0.00 52 1029.6
20260508031540 19 68 9.7 20.9 0.00 0.00 0.00 51 1029.7
20260508030036 18 40 8.0 24.1 0.00 0.00 0.00 55 1030.0
20260508024535 17 37 9.7 20.9 0.00 0.00 0.00 60 1030.2
20260508023030 17 59 11.3 24.1 0.00 0.00 0.00 62 1030.5
20260508021532 17 34 11.3 20.9 0.00 0.00 0.00 62 1030.7
20260508020027 17 82 9.7 19.3 0.00 0.00 0.00 64 1030.9
20260508014526 16 57 8.0 24.1 0.00 0.00 0.00 66 1031.0